Погода в Термальном

Россия / Камчатский край     52°56′09″N   158°13′43″E
темп.,
°C
ветер,
м/с
пор.,
м/с
влажн.,
%
обл.,
%
осадки,
мм/ч
давл.,
гПа
погр.,
м
2 декабря, чт
чт200:00−6ссз1195100 4.9 101866
03:00−4с2296100 0.7 101274
06:00−3ссв1198100 2.9 100553
09:00−1с1299100 9.9 99957
12:00+1в12100100 16.2 99357
15:00+2зюз12100100 5.3 98640
18:00+1юз2299100 5.7 98429
21:00−2ююз338314 0.1 98324
3 декабря, пт
пт300:00−2юз478752 0.9 983190
03:00−5зюз10197584 0.6 988819
06:00−4зюз15257886 1.2 9921736
09:00−4зюз20297716 0.5 9981374
12:00−3зюз20277815 1.4 10051283
15:00−2зюз1322768 0.2 10101294
18:00−2зюз4128015 0.6 1013466
21:00−6зюз229129 0.3 101520
4 декабря, сб
сб400:00−2ююз229776 1.6 101547
03:00−2ю129773 0.6 101648
06:00−3ю1195100 0.8 101529
09:00−3з1194100 0.0 101414
12:000ююв1189100 0.0 101240
15:000св119686 0.0 100938
18:00−3зсз119856 0.1 100628
21:00−1зсз119898 0.7 100231
5 декабря, вс
вс500:000зсз229594 1.1 99959
03:00+1з229290 0.1 99652
06:00−4з46859 0.2 999130
09:00−6з6138311 0.0 1000250
12:00−5зсз1318741 0.1 1002918
15:00−5зсз10157610 0.0 1003857
18:00−9з379037 0.1 1004245
21:00−11з368618 0.1 1006145
6 декабря, пн
пн600:00−9з5127710 0.2 1007257
03:00−7з7147434 0.1 1009440
06:00−7з11187711 0.3 1010619
09:00−6з9177746 0.1 1011544
12:00−4з11177639 0.1 10121051
15:00−3з11177512 0.1 10131093
18:00−8з358211 0.1 1015130
21:00−9з338614 0.0 101629